Location: Newark
(21.1200°N, 73.4000°E)
Time: 04:00:04
(UTC+00:00)

Courier 1B Rocket - Pass Details

Date: 21 January 2020
Orbit: 920 x 1202 km, 28.2° (Epoch: 17 February)

Event Time Altitude Azimuth Distance (km) Brightness Sun altitude
Rises 03:50:11 0° 198° (SSW) 4,031 8.4 24.7°
Reaches altitude 10° 03:55:22 10° 170° (S) 3,014 8.4 25.7°
Maximum altitude 03:57:56 12° 149° (SSE) 2,834 8.8 26.2°
Drops below altitude 10° 04:00:28 10° 128° (SE) 2,947 9.4 26.7°
Sets 04:05:20 0° 99° (E) 3,830 9.0 27.6°
